Regional Weather Roundup
Issued by NWS

Home | Current Version | Previous Version | Graphics & Text | Print | Product List | Glossary On
Versions: 1 2 3 4 5 6 7 8 9 10 11 12 13 14 15 16 17 18 19 20 21 22 23 24 25 26 27 28 29 30 31 32 33 34 35 36 37 38 39 40 41 42 43 44 45 46 47 48 49 50
000
ASUS43 KLMK 291510
RWRKY
KENTUCKY REGIONAL WEATHER ROUNDUP
NATIONAL WEATHER SERVICE LOUISVILLE KY
1100 AM EDT SUN MAR 29 2015

NOTE "FAIR" INDICATES FEW OR NO CLOUDS BELOW 12,000 FEET
WITH NO SIGNIFICANT WEATHER AND/OR OBSTRUCTIONS TO VISIBILITY.

KYZ001>023-026-027-061>063-070>075-291600-
WESTERN AND SOUTH CENTRAL KENTUCKY

CITY           SKY/WX    TMP DP  RH WIND       PRES   REMARKS
PADUCAH        SUNNY     46  20  35 S16       30.25F
HENDERSON      SUNNY     37  21  52 S18       30.27S WCI  27
OWENSBORO      SUNNY     42  23  47 S20       30.28F
HOPKINSVILLE   SUNNY     43  15  32 SE15G22   30.30F
BOWLING GREEN  SUNNY     43  17  35 SE13      30.32F
GLASGOW        SUNNY     42  16  35 S8G16     30.33F
$$

KYZ024-025-028>034-038-045-046-053-291600-
NORTH CENTRAL KENTUCKY

CITY           SKY/WX    TMP DP  RH WIND       PRES   REMARKS
LOUISVILLE/SDF MOSUNNY   41  17  38 S15       30.32F
LOUISVILLE/LOU SUNNY     39  18  42 S10       30.33F WCI  32
FORT KNOX      SUNNY     40  18  40 SE15      30.29F WCI  32
$$

KYZ035>037-039>044-047>052-055>060-089>105-291600-
NORTHEAST KENTUCKY

CITY           SKY/WX    TMP DP  RH WIND       PRES   REMARKS
LEXINGTON      SUNNY     38  16  40 S14       30.33F WCI  30
COVINGTON      MOSUNNY   38  17  42 S13       30.31F WCI  30
FRANKFORT      SUNNY     38  16  40 SE14      30.31F WCI  30
$$

KYZ054-064>069-076>088-106>120-291600-
SOUTHEAST KENTUCKY

CITY           SKY/WX    TMP DP  RH WIND       PRES   REMARKS
JACKSON        SUNNY     36  13  38 VRB5      30.35F WCI  32
LONDON         SUNNY     37  11  34 SE7       30.34F WCI  32
SOMERSET       SUNNY     37  16  41 S6        30.36S WCI  33
MIDDLESBORO    SUNNY     38  15  40 E7        30.38F WCI  32
MONTICELLO     SUNNY     40  18  41 CALM      30.37F
$$



USA.gov is the U.S. government's official web portal to all federal, state and local government web resources and services.